Location: Bullenkuhlen
(53.7689°N, 9.7495°E)
Time: 23:29:48
(UTC+00:00)

Meteor 1-20 Rocket - Pass Details

Date: 09 April 2020
Orbit: 819 x 892 km, 81.2° (Epoch: 24 May)

Event Time Altitude Azimuth Distance (km) Brightness Sun altitude
Rises 23:08:43 0° 346° (NNW) 3,502 8.6 -28.1°
Reaches altitude 10° 23:11:12 10° 348° (NNW) 2,551 7.6 -28.2°
Maximum altitude 23:17:01 81° 76° (ENE) 887 4.2 -28.2°
Enters shadow 23:17:04 81° 85° (E) 887 4.2 -28.2°
